Greybull, WY

3:23 PM MST on February 07, 2016 (GMT -0700)
South Big Horn County

Weather History for KGEY - December, 2011

Change the Weather History Date:

Friday, December 2, 2011

  Actual Average Record
Temperature  
Mean Temperature 21 °F 21 °F  
Max Temperature 30 °F 33 °F 60 °F (1998)
Min Temperature 12 °F 10 °F -10 °F (2007)
Degree Days  
Heating Degree Days 44 44  
Month to date heating degree days 87  
Since 1 July heating degree days 1944  
Cooling Degree Days 0 0  
Month to date cooling degree days 0  
Year to date cooling degree days 669  
Moisture  
Dew Point 14 °F    
Average Humidity 68    
Maximum Humidity 84    
Minimum Humidity 50    
Precipitation  
Precipitation 0.00 in 0.01 in 0.02 in (2008)
Month to date precipitation 0.03  
Year to date precipitation 7.26  
Sea Level Pressure  
Sea Level Pressure 30.10 in    
Wind  
Wind Speed 6 mph (NW)    
Max Wind Speed 22 mph    
Max Gust Speed 31 mph    
Visibility 10 miles    
Events Snow    
T = Trace of Precipitation, MM = Missing Value Source: NWS Daily Summary

Daily Weather History Graph

Daily Weather History Graph

Search for Another Location

Airport or City:

Trip Planner

Search our weather history database for the weather conditions in past years. The results will help you decide how hot, cold, wet, or windy it might be!

Date:

Astronomy

Dec. 02, 2011 Rise Set
Actual Time 7:29 AM MST 4:33 PM MST
Civil Twilight 6:56 AM MST 5:06 PM MST
Nautical Twilight 6:20 AM MST 5:42 PM MST
Astronomical Twilight 5:45 AM MST 6:17 PM MST
Moon 12:28 PM MST (12/2) No Moon Set
Length of Visible Light 10h 09m
Length of Day
9h 03m
First Quarter, 54% of the Moon is Illuminated
Dec 2
First Quarter
Dec 10
Full
Dec 17
Last Quarter
Dec 24
New
Dec 31
First Quarter

Hourly Weather History & Observations

Time (MST) Temp. Windchill Dew Point Humidity Pressure Visibility Wind Dir Wind Speed Gust Speed Precip Events Conditions
12:53 AM 16.0 °F 10.4 °F 10.0 °F 77% 30.26 in 10.0 mi ESE 3.5 mph - N/A   Clear
1:53 AM 15.1 °F - 10.9 °F 84% 30.21 in 10.0 mi Calm Calm - N/A   Clear
2:53 AM 15.1 °F - 10.0 °F 80% 30.18 in 10.0 mi Calm Calm - N/A   Clear
3:53 AM 14.0 °F - 9.0 °F 80% 30.12 in 10.0 mi Calm Calm - N/A   Clear
4:53 AM 14.0 °F - 9.0 °F 80% 30.09 in 10.0 mi Calm Calm - N/A   Clear
6:53 AM 12.9 °F - 9.0 °F 84% 30.05 in 10.0 mi Calm Calm - N/A   Clear
7:53 AM 14.0 °F - 9.0 °F 80% 30.05 in 10.0 mi Calm Calm - N/A   Clear
8:53 AM 17.1 °F - 10.9 °F 77% 30.05 in 10.0 mi Calm Calm - N/A   Scattered Clouds
9:53 AM 19.9 °F - 14.0 °F 78% 30.04 in 10.0 mi Calm Calm - N/A   Clear
10:53 AM 23.0 °F 14.7 °F 12.9 °F 65% 30.05 in 10.0 mi NNW 6.9 mph - N/A   Clear
12:53 PM 27.0 °F 21.6 °F 12.9 °F 56% 30.01 in 10.0 mi WNW 4.6 mph - N/A   Overcast
1:53 PM 27.0 °F 16.7 °F 16.0 °F 63% 30.03 in 6.0 mi NNW 11.5 mph 19.6 mph 0.00 in Snow Light Snow
2:00 PM 26.6 °F 18.2 °F 19.4 °F 74% 29.88 in 1.8 mi WNW 8.1 mph - 0.00 in Snow Light Snow
2:53 PM 27.0 °F 21.6 °F 21.9 °F 81% 30.03 in 10.0 mi Variable 4.6 mph - 0.00 in   Overcast
3:22 PM 30.2 °F 20.8 °F 21.2 °F 69% 29.89 in 10.0 mi NNW 11.5 mph - N/A   Overcast
3:53 PM 30.9 °F - 19.9 °F 64% 30.04 in 10.0 mi Calm Calm - N/A   Overcast
4:25 PM 30.2 °F 18.9 °F 17.6 °F 60% 29.94 in 10.0 mi NNW 16.1 mph 24.2 mph N/A   Overcast
4:53 PM 30.9 °F 18.4 °F 14.0 °F 50% 30.09 in 10.0 mi NNW 20.7 mph 26.5 mph N/A   Overcast
5:53 PM 30.0 °F 17.2 °F 17.1 °F 59% 30.14 in 10.0 mi NW 20.7 mph 27.6 mph N/A   Overcast
6:53 PM 30.9 °F 18.4 °F 14.0 °F 50% 30.16 in 10.0 mi NNW 20.7 mph - N/A   Overcast
7:53 PM 30.0 °F 18.3 °F 15.1 °F 54% 30.19 in 10.0 mi NW 17.3 mph - N/A   Overcast
8:53 PM 28.9 °F 16.9 °F 16.0 °F 58% 30.20 in 10.0 mi NW 17.3 mph 26.5 mph N/A   Overcast
9:53 PM 28.9 °F 15.4 °F 16.0 °F 58% 30.21 in 10.0 mi NW 21.9 mph 31.1 mph N/A   Mostly Cloudy
10:53 PM 27.0 °F 14.7 °F 17.1 °F 66% 30.25 in 10.0 mi NW 16.1 mph - N/A   Mostly Cloudy
11:53 PM 27.0 °F 15.6 °F 15.1 °F 61% 30.27 in 10.0 mi NW 13.8 mph - N/A   Mostly Cloudy